Poiana Brasov, Romania 16 day weather forecast

Slopes altitude range 1030 m - 1780m

Number of lifts: 11 Pistes: 20km

In some cases the lift and piste totals shown are for the ski domain (e.g. Three Valleys) rather than individual resort (e.g. Courchevel)

Overview

The 16 day weather forecast is fully updated 4 times every day.

    • Wed 23 MAY 2018
    • Wed 23
    • 16C 20C
    • Thu 24 MAY 2018
    • Thu 24
    • 15C 19C
    • Fri 25 MAY 2018
    • Fri 25
    • 14C 19C
    • Sat 26 MAY 2018
    • Sat 26
    • 14C 17C
    • Sun 27 MAY 2018
    • Sun 27
    • 14C 20C
    • Mon 28 MAY 2018
    • Mon 28
    • 12C 20C
    • Tue 29 MAY 2018
    • Tue 29
    • 15C 21C
    • Wed 30 MAY 2018
    • Wed 30
    • 18C 23C
    • Thu 31 MAY 2018
    • Thu 31
    • 18C 23C
    • Fri 01 JUN 2018
    • Fri 01
    • 18C 22C
    • Sat 02 JUN 2018
    • Sat 02
    • 16C 27C
    • Sun 03 JUN 2018
    • Sun 03
    • 15C 25C
    • Mon 04 JUN 2018
    • Mon 04
    • 17C 24C
    • Tue 05 JUN 2018
    • Tue 05
    • 17C 28C
    • Wed 06 JUN 2018
    • Wed 06
    • 18C 26C
    • Thu 07 JUN 2018
    • Thu 07
    • 19C 27C

Date:

Time Type 0°C level Temp Chill Snow Cloud Speed Gust Dir Press
3:00 3309m 8°C 8_5 0cm 82% 5mph 6mph 1021mB
6:00 3336m 8°C 8_4 0cm 81% 4mph 6mph 1021mB
9:00 3277m 16°C 16_4 0cm 91% 4mph 3mph 1021mB
12:00 3236m 20°C 20_4 0cm 95% 4mph 6mph 1019mB
15:00 3412m 17°C 17_3 0cm 100% 3mph 5mph 1018mB
18:00 3375m 17°C 17_4 0cm 98% 4mph 5mph 1018mB
21:00 3350m 10°C 10_4 0cm 38% 4mph 5mph 1019mB
0:00 3432m 9°C 9_3 0cm 36% 3mph 4mph 1019mB
3:00 3453m 8°C 8_2 0cm 0% 2mph 3mph 1018mB
6:00 3379m 8°C 8_2 0cm 1% 2mph 2mph 1018mB
9:00 2962m 15°C 15_4 0cm 93% 4mph 5mph 1018mB
12:00 3060m 19°C 19_3 0cm 95% 3mph 5mph 1016mB
15:00 3137m 19°C 19_2 0cm 73% 2mph 3mph 1015mB
18:00 3251m 19°C 19_2 0cm 82% 2mph 2mph 1016mB
21:00 3127m 10°C 10_0 0cm 34% 0mph 1mph 1018mB
0:00 3150m 9°C 9_2 0cm 21% 2mph 3mph 1017mB
3:00 3273m 8°C 8_1 0cm 1% 1mph 1mph 1018mB
6:00 3005m 8°C 8_4 0cm 3% 4mph 6mph 1018mB
9:00 3212m 14°C 14_6 0cm 8% 6mph 6mph 1018mB
12:00 3200m 19°C 19_5 0cm 34% 5mph 7mph 1017mB
15:00 3356m 19°C 19_5 0cm 54% 5mph 9mph 1017mB
18:00 3503m 19°C 19_4 0cm 42% 4mph 5mph 1018mB
21:00 3639m 10°C 10_3 0cm 4% 3mph 5mph 1019mB
0:00 3549m 10°C 10_3 0cm 2% 3mph 5mph 1020mB
3:00 3486m 9°C 9_3 0cm 4% 3mph 5mph 1020mB
6:00 3462m 9°C 9_6 0cm 28% 6mph 9mph 1021mB
9:00 3509m 14°C 14_7 0cm 84% 7mph 11mph 1022mB
12:00 3518m 17°C 17_7 0cm 80% 7mph 10mph 1022mB
15:00 3530m 16°C 16_4 0cm 99% 4mph 7mph 1022mB
18:00 3559m 16°C 16_3 0cm 97% 3mph 4mph 1024mB
21:00 3545m 11°C 11_2 0cm 91% 2mph 3mph 1025mB
0:00 3553m 10°C 10_2 0cm 67% 2mph 2mph 1025mB
3:00 3545m 9°C 9_0 0cm 36% 0mph 1mph 1025mB
6:00 3556m 9°C 9_2 0cm 52% 2mph 2mph 1025mB
9:00 3658m 14°C 14_1 0cm 89% 1mph 2mph 1025mB
12:00 3763m 20°C 20_3 0cm 73% 3mph 3mph 1023mB
15:00 3777m 20°C 20_3 0cm 76% 3mph 3mph 1023mB
18:00 3748m 20°C 20_3 0cm 55% 3mph 3mph 1024mB
21:00 3817m 7°C 7_2 0cm 5% 2mph 3mph 1025mB
0:00 3796m 5°C 5_1 0cm 2% 1mph 2mph 1025mB
3:00 3740m 4°C 4_0 0cm 0% 0mph 1mph 1025mB
6:00 3678m 4°C 4_4 0cm 0% 4mph 5mph 1025mB
9:00 3638m 12°C 12_4 0cm 0% 4mph 3mph 1024mB
12:00 2884m 20°C 20_5 0cm 0% 5mph 4mph 1023mB
15:00 2922m 19°C 19_4 0cm 78% 4mph 7mph 1022mB
18:00 3660m 19°C 19_2 0cm 82% 2mph 3mph 1023mB
21:00 3676m 7°C 7_1 0cm 82% 1mph 2mph 1023mB
0:00 3631m 6°C 6_0 0cm 51% 0mph 1mph 1023mB
3:00 3531m 6°C 6_1 0cm 43% 1mph 1mph 1023mB
6:00 3556m 6°C 6_3 0cm 41% 3mph 4mph 1022mB
9:00 3527m 15°C 15_5 0cm 17% 5mph 7mph 1020mB
12:00 3487m 21°C 21_7 0cm 34% 7mph 9mph 1019mB
15:00 3616m 19°C 19_6 0cm 79% 6mph 9mph 1018mB
18:00 3605m 19°C 19_3 0cm 50% 3mph 4mph 1018mB
21:00 3611m 9°C 9_0 0cm 0% 0mph 1mph 1019mB
0:00 3543m 9°C 9_1 0cm 10% 1mph 2mph 1019mB
3:00 3546m 9°C 9_2 0cm 30% 2mph 3mph 1018mB
6:00 3529m 9°C 9_6 0cm 15% 6mph 10mph 1018mB
9:00 3481m 18°C 18_10 0cm 0% 10mph 13mph 1017mB
12:00 3548m 23°C 23_9 0cm 0% 9mph 11mph 1016mB
15:00 3525m 23°C 23_10 0cm 1% 10mph 12mph 1015mB
18:00 3535m 23°C 23_6 0cm 2% 6mph 10mph 1016mB
21:00 3564m 11°C 11_5 0cm 1% 5mph 6mph 1017mB
0:00 3536m 10°C 10_4 0cm 1% 4mph 5mph 1017mB
3:00 3400m 9°C 9_4 0cm 0% 4mph 4mph 1018mB
6:00 3405m 9°C 9_6 0cm 9% 6mph 14mph 1018mB
9:00 3472m 18°C 18_8 0cm 80% 8mph 12mph 1017mB
12:00 3412m 23°C 23_9 0cm 89% 9mph 12mph 1016mB
15:00 3388m 22°C 22_8 0cm 99% 8mph 14mph 1016mB
18:00 3448m 22°C 22_3 0cm 97% 3mph 4mph 1017mB
21:00 3497m 13°C 13_4 0cm 70% 4mph 5mph 1017mB
0:00 3523m 12°C 12_3 0cm 64% 3mph 4mph 1017mB
3:00 3469m 11°C 11_3 0cm 13% 3mph 4mph 1017mB
6:00 3366m 11°C 11_2 0cm 27% 2mph 5mph 1017mB
9:00 3391m 18°C 18_4 0cm 96% 4mph 8mph 1017mB
12:00 3463m 22°C 22_6 0cm 83% 6mph 9mph 1016mB
15:00 3572m 21°C 21_6 0cm 47% 6mph 11mph 1016mB
18:00 3615m 21°C 21_2 0cm 28% 2mph 3mph 1016mB
Morning 0.645833mm 0 3642m 11°C 11_2 0cm 2% 2mph 2mph 1016mB
Afternoon 0.71875mm 0.1875 3699m 27°C 27_3 0cm 49% 3mph 4mph 1013mB
Morning 0.510417mm 0 3528m 12°C 12_1 0cm 64% 1mph 2mph 1013mB
Afternoon 0.661458mm 6.5625 3558m 25°C 25_2 0cm 77% 2mph 3mph 1011mB
Morning 0.338542mm 0.25 3608m 12°C 12_2 0cm 56% 2mph 3mph 1009mB
Afternoon 0.302083mm 5.9375 3739m 24°C 24_3 0cm 24% 3mph 4mph 1007mB
Morning 0.494792mm 0 3683m 12°C 12_3 0cm 28% 3mph 4mph 1008mB
Afternoon 0.734375mm 1 3755m 28°C 28_3 0cm 10% 3mph 3mph 1007mB
Morning 0.645833mm 0.3125 3731m 13°C 13_1 0cm 7% 1mph 3mph 1008mB
Afternoon 0.739583mm 2.0625 3718m 26°C 26_4 0cm 68% 4mph 5mph 1006mB
Morning 0.1875mm 0.125 3900m 14°C 14_2 0cm 42% 2mph 4mph 1007mB
Afternoon 0.197917mm 1.6875 3940m 27°C 27_3 0cm 58% 3mph 4mph 1007mB

16 day outlook at a glance

Forecast issued: 23/05/2018 04:27:12

Chat

Your comments and questions. In a resort? Let us know what it's like!


Characters left 250

For terms and conditions see Readers Comments on the Cookie and privacy policy page.